Alexandria, LA

12:09 PM CST on February 09, 2016 (GMT -0600)
Alexandria International

Weather History for KAEX - July, 2013

Change the Weather History Date:

Thursday, July 18, 2013

  Actual Average Record
Temperature  
Mean Temperature 83 °F 82 °F  
Max Temperature 94 °F 92 °F 102 °F (1980)
Min Temperature 71 °F 73 °F 67 °F (1967)
Cooling Degree Days 18 17  
Month to date cooling degree days 292 306  
Year to date cooling degree days 1166 1213  
Since 1 June cooling degree days 773 759  
Growing Degree Days 32 (Base 50)    
Moisture  
Dew Point 71 °F    
Average Humidity 73    
Maximum Humidity 100    
Minimum Humidity 46    
Precipitation  
Precipitation 0.23 in 0.09 in 3.14 in (2014)
Month to date precipitation 0.97 2.52  
Year to date precipitation 30.42 31.62  
Sea Level Pressure  
Sea Level Pressure 30.09 in    
Wind  
Wind Speed 3 mph (NNE)    
Max Wind Speed 20 mph    
Max Gust Speed 26 mph    
Visibility 9 miles    
Events Rain , Thunderstorm    
T = Trace of Precipitation, MM = Missing Value Source: NWS Daily Summary

Daily Weather History Graph

Daily Weather History Graph

Search for Another Location

Airport or City:

Trip Planner

Search our weather history database for the weather conditions in past years. The results will help you decide how hot, cold, wet, or windy it might be!

Date:

Astronomy

Jul. 18, 2013 Rise Set
Actual Time 6:18 AM CDT 8:14 PM CDT
Civil Twilight 5:51 AM CDT 8:41 PM CDT
Nautical Twilight 5:18 AM CDT 9:14 PM CDT
Astronomical Twilight 4:43 AM CDT 9:49 PM CDT
Moon 4:13 PM CDT (7/18) 2:05 AM CDT (7/18)
Length of Visible Light 14h 50m
Length of Day
13h 56m
Waxing Gibbous, 77% of the Moon is Illuminated
Jul 18
Waxing Gibbous
Jul 22
Full
Jul 29
Last Quarter
Aug 6
New
Aug 14
First Quarter

Hourly Weather History & Observations

Time (CDT) Temp. Heat Index Dew Point Humidity Pressure Visibility Wind Dir Wind Speed Gust Speed Precip Events Conditions
12:53 AM 73.9 °F - 73.0 °F 97% 30.16 in 10.0 mi Calm Calm - N/A   Clear
1:53 AM 73.9 °F - 72.0 °F 93% 30.14 in 10.0 mi Calm Calm - N/A   Clear
2:53 AM 73.0 °F - 72.0 °F 96% 30.13 in 10.0 mi Calm Calm - N/A   Clear
3:53 AM 72.0 °F - 72.0 °F 100% 30.12 in 7.0 mi Calm Calm - N/A   Clear
4:53 AM 73.0 °F - 72.0 °F 96% 30.12 in 9.0 mi Calm Calm - N/A   Clear
5:53 AM 72.0 °F - 71.1 °F 97% 30.13 in 6.0 mi Calm Calm - N/A   Clear
6:53 AM 72.0 °F - 72.0 °F 100% 30.13 in 5.0 mi Calm Calm - 0.01 in   Clear
7:53 AM 75.9 °F - 73.0 °F 91% 30.14 in 10.0 mi Calm Calm - N/A   Clear
8:53 AM 81.0 °F 85.2 °F 72.0 °F 74% 30.15 in 10.0 mi Calm Calm - N/A   Clear
9:53 AM 84.9 °F 92.1 °F 73.9 °F 69% 30.16 in 10.0 mi Calm Calm - N/A   Clear
10:53 AM 86.0 °F 93.0 °F 73.0 °F 65% 30.15 in 10.0 mi Calm Calm - N/A   Clear
11:53 AM 88.0 °F 94.7 °F 72.0 °F 59% 30.14 in 10.0 mi Variable 3.5 mph - N/A   Clear
12:53 PM 91.9 °F 98.4 °F 71.1 °F 50% 30.11 in 10.0 mi North 3.5 mph - N/A   Clear
1:53 PM 93.9 °F 100.3 °F 70.0 °F 46% 30.08 in 10.0 mi Variable 4.6 mph - N/A   Partly Cloudy
2:07 PM 91.4 °F 98.4 °F 71.6 °F 52% 30.06 in 10.0 mi South 5.8 mph - N/A Thunderstorm Partly Cloudy
2:53 PM 82.9 °F 88.0 °F 72.0 °F 69% 30.06 in 7.0 mi ESE 16.1 mph 26.5 mph 0.00 in Rain , Thunderstorm Light Thunderstorms and Rain
3:14 PM 75.2 °F - 69.8 °F 83% 30.06 in 2.0 mi NNE 17.3 mph - 0.13 in Rain , Thunderstorm Heavy Thunderstorms and Rain
3:26 PM 71.6 °F - 66.2 °F 83% 30.06 in 4.0 mi North 19.6 mph 24.2 mph 0.19 in Rain , Thunderstorm Heavy Thunderstorms and Rain
3:33 PM 71.6 °F - 66.2 °F 83% 30.05 in 2.0 mi NNE 11.5 mph 24.2 mph 0.20 in Rain , Thunderstorm Light Thunderstorms and Rain
3:53 PM 72.0 °F - 69.1 °F 91% 30.04 in 2.0 mi North 8.1 mph - 0.22 in Rain , Thunderstorm Light Rain
4:00 PM 73.4 °F - 69.8 °F 88% 30.02 in 10.0 mi Calm Calm - 0.00 in Rain , Thunderstorm Light Rain
4:14 PM 73.4 °F - 69.8 °F 88% 30.02 in 10.0 mi North 4.6 mph - 0.00 in   Mostly Cloudy
4:36 PM 73.4 °F - 69.8 °F 88% 30.02 in 10.0 mi Calm Calm - 0.00 in Rain , Thunderstorm Light Rain
4:51 PM 73.4 °F - 69.8 °F 88% 30.02 in 10.0 mi NNE 6.9 mph - 0.00 in Rain Light Rain
4:53 PM 73.9 °F - 71.1 °F 91% 30.03 in 10.0 mi NE 5.8 mph - 0.00 in Rain Light Rain
5:53 PM 77.0 °F - 71.1 °F 82% 30.05 in 10.0 mi Calm Calm - 0.00 in   Mostly Cloudy
6:53 PM 75.0 °F - 70.0 °F 84% 30.05 in 10.0 mi South 4.6 mph - 0.00 in   Partly Cloudy
7:53 PM 75.0 °F - 71.1 °F 87% 30.06 in 10.0 mi Calm Calm - N/A   Clear
8:53 PM 73.9 °F - 72.0 °F 93% 30.10 in 10.0 mi North 9.2 mph - N/A   Overcast
9:53 PM 73.9 °F - 71.1 °F 91% 30.09 in 10.0 mi North 5.8 mph - 0.00 in Rain Light Rain
10:53 PM 73.9 °F - 71.1 °F 91% 30.09 in 10.0 mi Calm Calm - 0.00 in   Mostly Cloudy
11:53 PM 73.0 °F - 72.0 °F 96% 30.07 in 10.0 mi Calm Calm - N/A   Mostly Cloudy